Location: Unspecified
(43.8044°N, 11.0278°E)
Time: 12:16:38
(UTC+02:00)

Cosmos 1674 - Visible Passes

Search period start: 01 October 2014 00:00
Search period end: 11 October 2014 00:00
Orbit: 515 x 542 km, 82.5° (Epoch: 29 September)

Date Brightness Start Highest point End Pass type
(mag) Time Alt. Az. Time Alt. Az. Time Alt. Az.
01 Oct 3.9 20:51:14 10° NNW 20:55:02 45° W 20:58:49 10° SSW visible
02 Oct 3.7 20:40:05 10° NNW 20:43:55 49° W 20:47:45 10° SSW visible
03 Oct 3.5 20:28:54 10° NNW 20:32:48 54° W 20:36:40 10° S visible
04 Oct 3.4 20:17:44 10° NNW 20:21:40 59° W 20:25:33 10° S visible
05 Oct 3.2 20:06:34 10° NNW 20:10:31 65° W 20:14:26 10° S visible
06 Oct 3.0 19:55:23 10° NNW 19:59:21 72° W 20:03:18 10° S visible
07 Oct 2.9 19:44:12 10° N 19:48:11 79° W 19:52:08 10° S visible
08 Oct 2.8 19:33:00 10° N 19:37:00 87° W 19:40:58 10° S visible
09 Oct 2.8 19:21:49 10° N 19:25:49 86° E 19:29:46 10° S visible
10 Oct 2.7 19:10:37 10° N 19:14:36 78° E 19:18:33 10° SSE visible
